GW0175 Weather Reports


time (UTC)temp
C
wind
direction
speed
KPH
gust
KPH
rain 1hr
cm
rain 24hr
cm
rain mn
cm
humidity
%
barometer
mb
20260506044908 17 216 3.2 3.2 0.00 0.00 0.00 55 1007.2
20260506044406 17 194 0.0 6.4 0.00 0.00 0.00 52 1007.2
20260506043903 18 208 3.2 6.4 0.00 0.00 0.00 56 1007.2
20260506043400 18 234 0.0 3.2 0.00 0.00 0.00 53 1006.9
20260506042858 18 261 0.0 1.6 0.00 0.00 0.00 52 1006.9
20260506042357 18 8 0.0 0.0 0.00 0.00 0.00 50 1007.1
20260506041855 18 8 0.0 0.0 0.00 0.00 0.00 47 1006.7
20260506041354 18 8 0.0 0.0 0.00 0.00 0.00 48 1006.8
20260506040849 18 8 0.0 0.0 0.00 0.00 0.00 47 1006.7
20260506040347 18 0 0.0 0.0 0.00 0.00 0.00 47 1006.9
20260506035843 19 0 0.0 0.0 0.00 0.00 0.00 47 1006.7
20260506035340 19 12 0.0 3.2 0.00 0.00 0.00 46 1006.6
20260506034837 18 29 1.6 3.2 0.00 0.00 0.00 47 1006.4
20260506034334 18 14 4.8 4.8 0.00 0.00 0.00 50 1006.8
20260506033831 19 131 0.0 0.0 0.00 0.00 0.00 45 1006.6
20260506033328 19 131 0.0 0.0 0.00 0.00 0.00 46 1006.6
20260506032825 19 131 0.0 0.0 0.00 0.00 0.00 46 1006.7
20260506032322 19 117 0.0 0.0 0.00 0.00 0.00 48 1006.5
20260506031819 19 90 0.0 1.6 0.00 0.00 0.00 48 1006.6
20260506031316 20 148 0.0 3.2 0.00 0.00 0.00 49 1006.5
20260506030814 20 74 0.0 1.6 0.00 0.00 0.00 45 1006.7
20260506030312 20 15 0.0 3.2 0.00 0.00 0.00 43 1006.4
20260506025808 21 35 0.0 3.2 0.00 0.00 0.00 42 1006.4
20260506025306 21 270 0.0 3.2 0.00 0.00 0.00 40 1006.2
20260506024802 21 240 0.0 0.0 0.00 0.00 0.00 40 1006.4
20260506024258 21 240 0.0 3.2 0.00 0.00 0.00 39 1006.2
20260506023754 21 311 0.0 3.2 0.00 0.00 0.00 38 1006.3
20260506023252 22 283 1.6 3.2 0.00 0.00 0.00 38 1006.1
20260506022748 22 277 0.0 3.2 0.00 0.00 0.00 37 1006.1
20260506022246 22 248 3.2 4.8 0.00 0.00 0.00 36 1006.1
20260506021744 22 270 0.0 3.2 0.00 0.00 0.00 36 1006.2
20260506021241 22 294 0.0 4.8 0.00 0.00 0.00 35 1006.1
20260506020737 22 263 4.8 6.4 0.00 0.00 0.00 35 1006.2
20260506020235 23 297 4.8 8.0 0.00 0.00 0.00 34 1006.0
20260506015733 23 290 6.4 12.9 0.00 0.00 0.00 34 1006.1
20260506015230 23 256 8.0 9.7 0.00 0.00 0.00 34 1006.2
20260506014727 23 292 4.8 11.3 0.00 0.00 0.00 33 1005.9
20260506014223 23 259 8.0 11.3 0.00 0.00 0.00 33 1006.0
20260506013721 23 307 9.7 14.5 0.00 0.00 0.00 32 1005.9
20260506013218 24 0 1.6 14.5 0.00 0.00 0.00 31 1006.0
20260506012714 23 287 8.0 19.3 0.00 0.00 0.00 32 1005.7
20260506012211 24 281 8.0 14.5 0.00 0.00 0.00 32 1005.9
20260506011708 24 313 4.8 9.7 0.00 0.00 0.00 32 1006.0
20260506011204 24 263 6.4 14.5 0.00 0.00 0.00 31 1005.9
20260506010703 25 259 8.0 17.7 0.00 0.00 0.00 30 1005.9
20260506010200 25 265 6.4 20.9 0.00 0.00 0.00 30 1005.7
20260506005657 25 268 8.0 25.7 0.00 0.00 0.00 29 1005.6
20260506005153 25 290 14.5 22.5 0.00 0.00 0.00 29 1005.7
20260506004649 25 261 6.4 25.7 0.00 0.00 0.00 29 1005.6
20260506004147 26 273 6.4 27.4 0.00 0.00 0.00 29 1005.6
20260506003643 26 261 9.7 19.3 0.00 0.00 0.00 29 1005.6
20260506003139 26 300 17.7 25.7 0.00 0.00 0.00 29 1005.5
20260506002636 26 275 12.9 32.2 0.00 0.00 0.00 29 1005.5
20260506002132 26 307 6.4 29.0 0.00 0.00 0.00 29 1005.7
20260506001627 26 270 17.7 27.4 0.00 0.00 0.00 28 1005.5
20260506001125 26 292 8.0 29.0 0.00 0.00 0.00 29 1005.6
20260506000622 26 292 8.0 27.4 0.00 0.00 0.00 28 1005.6
20260506000120 26 276 14.5 24.1 0.00 0.00 0.00 28 1005.9
20260505235618 27 288 12.9 19.3 0.00 0.00 0.00 28 1005.4
20260505235114 26 240 35.4 35.4 0.00 0.00 0.00 27 1005.5
20260505234611 27 243 17.7 25.7 0.00 0.00 0.00 27 1005.5
20260505234108 26 278 9.7 27.4 0.00 0.00 0.00 28 1005.6
20260505233606 27 246 8.0 17.7 0.00 0.00 0.00 28 1005.7
20260505233103 26 259 9.7 29.0 0.00 0.00 0.00 29 1006.0
20260505232601 26 253 12.9 30.6 0.00 0.00 0.00 30 1006.1
20260505232058 26 308 6.4 41.8 0.00 0.00 0.00 30 1005.9
20260505231554 26 296 9.7 25.7 0.00 0.00 0.00 30 1005.9
20260505231053 26 262 24.1 30.6 0.00 0.00 0.00 30 1006.1
20260505230550 26 315 4.8 24.1 0.00 0.00 0.00 31 1006.0
20260505230046 25 246 11.3 27.4 0.00 0.00 0.00 30 1006.3
20260505225544 25 275 16.1 41.8 0.00 0.00 0.00 30 1006.0
20260505225039 26 276 9.7 27.4 0.00 0.00 0.00 29 1006.0
20260505224537 26 287 11.3 33.8 0.00 0.00 0.00 29 1006.2
20260505224034 27 246 11.3 25.7 0.00 0.00 0.00 29 1005.9
20260505223531 26 281 14.5 32.2 0.00 0.00 0.00 29 1005.9
20260505223027 26 283 19.3 27.4 0.00 0.00 0.00 29 1006.1
20260505222523 26 270 8.0 29.0 0.00 0.00 0.00 30 1005.9
20260505222019 26 226 11.3 35.4 0.00 0.00 0.00 29 1006.0
20260505221517 26 241 6.4 25.7 0.00 0.00 0.00 29 1005.9
20260505221013 26 349 4.8 27.4 0.00 0.00 0.00 30 1006.2
20260505220510 27 274 14.5 29.0 0.00 0.00 0.00 29 1006.1
20260505220008 27 310 9.7 24.1 0.00 0.00 0.00 28 1006.2
20260505215506 26 284 14.5 37.0 0.00 0.00 0.00 29 1006.2
20260505215004 27 287 8.0 14.5 0.00 0.00 0.00 28 1006.2
20260505214502 26 277 12.9 35.4 0.00 0.00 0.00 29 1006.5
20260505213958 27 282 11.3 20.9 0.00 0.00 0.00 28 1006.4
20260505213456 28 286 17.7 17.7 0.00 0.00 0.00 28 1006.2
20260505212952 26 251 6.4 30.6 0.00 0.00 0.00 29 1006.1
20260505212449 27 297 17.7 24.1 0.00 0.00 0.00 28 1006.0
20260505211945 27 312 6.4 38.6 0.00 0.00 0.00 29 1006.5
20260505211443 27 270 4.8 27.4 0.00 0.00 0.00 27 1006.4
20260505210939 28 326 3.2 14.5 0.00 0.00 0.00 27 1006.1
20260505210437 28 327 8.0 20.9 0.00 0.00 0.00 27 1006.2
20260505205933 27 236 4.8 29.0 0.00 0.00 0.00 26 1006.1
20260505205432 27 281 20.9 25.7 0.00 0.00 0.00 27 1006.3
20260505204928 27 275 12.9 30.6 0.00 0.00 0.00 27 1006.2
20260505204426 27 213 4.8 24.1 0.00 0.00 0.00 27 1006.3
20260505203923 28 255 19.3 27.4 0.00 0.00 0.00 26 1006.1
20260505203419 27 257 19.3 29.0 0.00 0.00 0.00 26 1006.4
20260505202916 28 262 4.8 22.5 0.00 0.00 0.00 27 1006.1
20260505202412 27 299 12.9 32.2 0.00 0.00 0.00 28 1006.4
20260505201909 27 325 20.9 22.5 0.00 0.00 0.00 27 1006.5
20260505201406 27 237 19.3 25.7 0.00 0.00 0.00 28 1006.5
20260505200904 26 232 12.9 29.0 0.00 0.00 0.00 28 1006.5
20260505200401 27 263 9.7 24.1 0.00 0.00 0.00 28 1006.1
20260505195856 26 296 9.7 17.7 0.00 0.00 0.00 28 1006.5
20260505195354 26 257 12.9 24.1 0.00 0.00 0.00 29 1006.5
20260505194851 26 336 3.2 16.1 0.00 0.00 0.00 28 1006.5
20260505194348 26 278 6.4 20.9 0.00 0.00 0.00 29 1006.5
20260505193843 25 299 8.0 20.9 0.00 0.00 0.00 29 1006.5
20260505193341 25 280 11.3 20.9 0.00 0.00 0.00 29 1006.4
20260505192838 25 237 16.1 20.9 0.00 0.00 0.00 29 1006.4
20260505192337 25 288 9.7 25.7 0.00 0.00 0.00 29 1006.7
20260505191834 25 266 14.5 16.1 0.00 0.00 0.00 29 1006.6
20260505191332 24 256 16.1 24.1 0.00 0.00 0.00 29 1006.7
20260505190829 24 275 12.9 24.1 0.00 0.00 0.00 30 1006.9
20260505190324 24 270 6.4 17.7 0.00 0.00 0.00 29 1006.8
20260505185820 24 294 9.7 22.5 0.00 0.00 0.00 29 1006.7
20260505185317 23 284 8.0 22.5 0.00 0.00 0.00 29 1007.1
20260505184813 23 345 3.2 19.3 0.00 0.00 0.00 29 1006.8
20260505184310 23 307 20.9 22.5 0.00 0.00 0.00 28 1006.7
20260505183807 24 275 6.4 27.4 0.00 0.00 0.00 29 1007.2
20260505183304 24 253 9.7 17.7 0.00 0.00 0.00 28 1006.9
20260505182801 24 232 6.4 20.9 0.00 0.00 0.00 28 1007.2
20260505182257 24 318 4.8 20.9 0.00 0.00 0.00 29 1007.3
20260505181754 24 263 8.0 14.5 0.00 0.00 0.00 30 1007.3
20260505181251 24 263 4.8 14.5 0.00 0.00 0.00 30 1007.3
20260505180748 24 290 4.8 11.3 0.00 0.00 0.00 30 1007.5
20260505180244 24 313 4.8 17.7 0.00 0.00 0.00 29 1007.5
20260505175741 24 270 8.0 19.3 0.00 0.00 0.00 29 1007.6
20260505175237 24 266 19.3 27.4 0.00 0.00 0.00 29 1007.4
20260505174734 24 285 6.4 24.1 0.00 0.00 0.00 30 1007.2
20260505174231 24 296 0.0 16.1 0.00 0.00 0.00 29 1007.5
20260505173727 24 249 17.7 22.5 0.00 0.00 0.00 30 1007.5
20260505173224 24 275 6.4 19.3 0.00 0.00 0.00 30 1007.6
20260505172721 24 298 8.0 24.1 0.00 0.00 0.00 31 1007.5
20260505172218 24 263 8.0 12.9 0.00 0.00 0.00 31 1007.3
20260505171718 24 246 16.1 24.1 0.00 0.00 0.00 31 1007.2
20260505171215 24 255 6.4 16.1 0.00 0.00 0.00 32 1007.3
20260505170712 24 274 9.7 12.9 0.00 0.00 0.00 32 1007.2
20260505170209 24 277 9.7 16.1 0.00 0.00 0.00 32 1007.4
20260505165704 24 279 8.0 20.9 0.00 0.00 0.00 32 1007.4
20260505165200 23 259 9.7 22.5 0.00 0.00 0.00 33 1007.4
20260505164655 24 264 4.8 17.7 0.00 0.00 0.00 33 1007.3
20260505164153 24 240 8.0 20.9 0.00 0.00 0.00 33 1007.2
20260505163651 24 228 9.7 16.1 0.00 0.00 0.00 34 1007.4
20260505163149 24 263 6.4 20.9 0.00 0.00 0.00 34 1007.4
20260505162646 23 247 11.3 16.1 0.00 0.00 0.00 33 1007.5
20260505162144 24 259 11.3 19.3 0.00 0.00 0.00 32 1007.5
20260505161640 24 308 14.5 19.3 0.00 0.00 0.00 33 1007.6
20260505161138 24 240 11.3 20.9 0.00 0.00 0.00 33 1007.5
20260505160636 23 263 6.4 22.5 0.00 0.00 0.00 33 1007.5
20260505160133 23 270 6.4 24.1 0.00 0.00 0.00 33 1007.4
20260505153112 23 131 3.2 8.0 0.00 0.00 0.00 38 1007.3
20260505152609 23 303 0.0 6.4 0.00 0.00 0.00 35 1007.2
20260505152104 22 4 6.4 8.0 0.00 0.00 0.00 36 1007.1
20260505151600 22 98 0.0 4.8 0.00 0.00 0.00 39 1007.4
20260505151058 22 29 1.6 4.8 0.00 0.00 0.00 40 1007.4
20260505150553 22 49 4.8 6.4 0.00 0.00 0.00 42 1007.4
20260505140519 21 25 4.8 14.5 0.00 0.00 0.00 37 1007.3
20260505124932 20 259 4.8 4.8 0.00 0.00 0.00 42 1006.0
20260505124429 20 261 0.0 6.4 0.00 0.00 0.00 42 1005.9
20260505123925 19 255 1.6 8.0 0.00 0.00 0.00 43 1006.0
20260505123422 18 264 1.6 8.0 0.00 0.00 0.00 45 1005.7
20260505122917 18 301 3.2 11.3 0.00 0.00 0.00 44 1005.4
20260505122416 18 286 0.0 4.8 0.00 0.00 0.00 47 1005.7
20260505121912 17 8 0.0 0.0 0.00 0.00 0.00 50 1006.0
20260505121409 18 276 0.0 6.4 0.00 0.00 0.00 46 1006.1
20260505120905 18 346 0.0 4.8 0.00 0.00 0.00 46 1005.6
20260505120402 20 300 1.6 4.8 0.00 0.00 0.00 38 1005.7
20260505115900 20 270 3.2 3.2 0.00 0.00 0.00 37 1005.7
20260505115357 20 278 1.6 3.2 0.00 0.00 0.00 37 1005.7
20260505114855 20 279 3.2 4.8 0.00 0.00 0.00 36 1005.9
20260505114351 20 254 1.6 3.2 0.00 0.00 0.00 35 1005.6
20260505113848 20 255 0.0 1.6 0.00 0.00 0.00 35 1005.4
20260505113344 20 246 0.0 3.2 0.00 0.00 0.00 35 1005.4
20260505112840 19 145 1.6 1.6 0.00 0.00 0.00 38 1005.5
20260505112338 19 227 0.0 4.8 0.00 0.00 0.00 38 1005.3
20260505111833 18 209 0.0 4.8 0.00 0.00 0.00 41 1005.5
20260505111329 18 172 0.0 4.8 0.00 0.00 0.00 43 1005.5
20260505110825 17 203 0.0 3.2 0.00 0.00 0.00 46 1005.5
20260505110323 17 90 0.0 0.0 0.00 0.00 0.00 49 1005.5
20260505101757 18 115 3.2 4.8 0.00 0.00 0.00 42 1005.5
20260505101253 17 161 3.2 4.8 0.00 0.00 0.00 47 1005.4
20260505100749 18 166 4.8 4.8 0.00 0.00 0.00 45 1005.3
20260505100246 17 145 1.6 4.8 0.00 0.00 0.00 47 1005.2
20260505095741 16 172 0.0 0.0 0.00 0.00 0.00 50 1005.3
20260505095240 17 14 0.0 4.8 0.00 0.00 0.00 53 1005.3
20260505094735 16 0 0.0 0.0 0.00 0.00 0.00 51 1005.4
20260505094231 16 81 0.0 3.2 0.00 0.00 0.00 55 1005.1
20260505093728 17 26 3.2 4.8 0.00 0.00 0.00 52 1005.3
20260505093225 17 90 0.0 0.0 0.00 0.00 0.00 51 1005.2
20260505092722 17 90 0.0 1.6 0.00 0.00 0.00 45 1005.0
20260505092221 18 157 0.0 1.6 0.00 0.00 0.00 44 1005.3
20260505091718 18 169 0.0 0.0 0.00 0.00 0.00 45 1005.1
20260505091216 18 180 0.0 0.0 0.00 0.00 0.00 44 1005.4
20260505090713 18 195 0.0 0.0 0.00 0.00 0.00 42 1005.2
20260505090211 18 188 0.0 4.8 0.00 0.00 0.00 42 1005.3
20260505085708 18 180 0.0 0.0 0.00 0.00 0.00 44 1005.4
20260505085206 18 180 0.0 1.6 0.00 0.00 0.00 46 1005.5
20260505084703 18 249 0.0 3.2 0.00 0.00 0.00 48 1005.4
20260505084202 17 249 0.0 3.2 0.00 0.00 0.00 52 1005.3
20260505083659 17 180 1.6 4.8 0.00 0.00 0.00 52 1005.4
20260505083155 17 244 6.4 6.4 0.00 0.00 0.00 52 1005.3
20260505082651 17 200 1.6 8.0 0.00 0.00 0.00 51 1005.2
20260505082148 17 241 3.2 4.8 0.00 0.00 0.00 53 1005.3
20260505081644 17 201 3.2 4.8 0.00 0.00 0.00 54 1005.4
20260505081142 17 213 3.2 4.8 0.00 0.00 0.00 56 1005.4
20260505080639 17 208 3.2 3.2 0.00 0.00 0.00 56 1005.6
20260505080135 17 257 3.2 4.8 0.00 0.00 0.00 55 1005.6
20260505075631 17 208 3.2 3.2 0.00 0.00 0.00 55 1005.5
20260505075128 17 219 4.8 4.8 0.00 0.00 0.00 57 1005.7
20260505074625 17 235 6.4 6.4 0.00 0.00 0.00 56 1005.6
20260505074122 16 230 4.8 4.8 0.00 0.00 0.00 58 1005.6
20260505073620 16 213 3.2 4.8 0.00 0.00 0.00 58 1005.6
20260505073118 16 253 4.8 4.8 0.00 0.00 0.00 59 1005.7
20260505072613 16 243 4.8 4.8 0.00 0.00 0.00 58 1005.5
20260505072110 16 245 3.2 4.8 0.00 0.00 0.00 58 1005.6
20260505071605 16 217 3.2 4.8 0.00 0.00 0.00 56 1006.0
20260505071103 17 215 1.6 3.2 0.00 0.00 0.00 55 1005.7
20260505070600 17 248 3.2 6.4 0.00 0.00 0.00 53 1005.9
20260505070056 17 225 3.2 6.4 0.00 0.00 0.00 50 1005.9
20260505065552 17 208 3.2 6.4 0.00 0.00 0.00 51 1005.7
20260505065049 17 236 3.2 4.8 0.00 0.00 0.00 52 1005.7
20260505064546 17 231 3.2 3.2 0.00 0.00 0.00 52 1005.6
20260505064045 17 220 3.2 3.2 0.00 0.00 0.00 51 1005.3
20260505063542 17 255 0.0 3.2 0.00 0.00 0.00 53 1005.5
20260505063037 17 270 0.0 0.0 0.00 0.00 0.00 58 1005.7
20260505062534 17 270 0.0 1.6 0.00 0.00 0.00 53 1005.6
20260505062031 17 246 0.0 1.6 0.00 0.00 0.00 55 1005.5
20260505061529 17 98 0.0 1.6 0.00 0.00 0.00 54 1006.0
20260505061027 17 172 0.0 0.0 0.00 0.00 0.00 51 1005.6
20260505060524 18 172 0.0 3.2 0.00 0.00 0.00 51 1005.6
20260505060020 17 209 1.6 3.2 0.00 0.00 0.00 51 1005.9
20260505055516 17 243 0.0 1.6 0.00 0.00 0.00 52 1005.7
20260505055013 17 145 0.0 0.0 0.00 0.00 0.00 53 1005.6
20260505054510 18 145 0.0 1.6 0.00 0.00 0.00 53 1005.7
20260505054008 18 154 0.0 0.0 0.00 0.00 0.00 53 1006.2
20260505053505 18 154 0.0 0.0 0.00 0.00 0.00 52 1006.0
20260505053001 18 228 0.0 3.2 0.00 0.00 0.00 49 1006.3
20260505052459 19 15 0.0 1.6 0.00 0.00 0.00 47 1006.3
20260505051956 18 299 3.2 4.8 0.00 0.00 0.00 47 1006.3
20260505051452 18 0 0.0 0.0 0.00 0.00 0.00 48 1006.2
20260505050951 18 12 1.6 3.2 0.00 0.00 0.00 48 1006.4
20260505050449 18 23 0.0 3.2 0.00 0.00 0.00 49 1006.3